Home   Weather   Portland   Past weeks

Flag for USA Past Weather in Portland, Maine, USA — Yesterday and Last 2 Weeks

Now
55 °F

Passing clouds.


Feels Like: 55 °F
Forecast: 50 / 62 °F
Wind: No wind

Location: Portland - Portland International Jetport

Current Time: Sep 29, 2016 at 7:54:10 PM

Latest Report: Sep 29, 2016 at 6:51 PM


Visibility: 10 mi

Pressure: 30.52 "Hg

Humidity: 72%

Dew Point: 46 °F

Location of PortlandLocation

Past Weather in Portland — Graph

°F

Portland Temperature Yesterday

Maximum temperature yesterday: 61 °F (at 3:51 PM)
Minimum temperature yesterday: 53 °F (at 8:51 AM)
Average temperature yesterday: 56 °F

High & Low Weather Summary for the Past Weeks

 TemperatureHumidityPressure
High82 °F (Sep 21, 1:51 PM)100% (Sep 19, 9:51 PM)30.53 "Hg (Sep 19, 9:51 PM)
Low39 °F (Sep 26, 4:51 AM)24% (Sep 21, 3:51 PM)29.88 "Hg (Sep 27, 1:51 PM)
Average61 °F72%30.13 "Hg
* Reported Sep 14 5:51 PM — Sep 29 5:51 PM, Portland, Weather by CustomWeather, © 2016

Note: Actual official high and low records may vary slightly from our data, if they occured in-between our weather recording intervals... More about our weather records

Advertising

Portland Weather History for the Previous 24 Hours

Scroll right to see more
 ConditionsComfort  
Time TempWeatherWind HumidityBarometerVisibility
5:51 PM
Thu, Sep 29
57 °FScattered clouds.6 mph67%30.52 "Hg10 mi
4:51 PM60 °FScattered clouds.9 mph56%30.50 "Hg10 mi
3:51 PM64 °FScattered clouds.10 mph40%30.50 "Hg10 mi
2:51 PM64 °FScattered clouds.10 mph40%30.51 "Hg10 mi
1:51 PM62 °FPassing clouds.9 mph44%30.51 "Hg10 mi
12:51 PM61 °FPassing clouds.8 mph46%30.53 "Hg10 mi
11:51 AM60 °FPassing clouds.12 mph47%30.53 "Hg10 mi
10:51 AM58 °FPassing clouds.14 mph50%30.53 "Hg10 mi
9:51 AM56 °FPassing clouds.16 mph60%30.53 "Hg10 mi
8:51 AM52 °FPassing clouds.10 mph72%30.52 "Hg10 mi
7:51 AM49 °FPassing clouds.12 mph80%30.50 "Hg10 mi
6:51 AM46 °FPassing clouds.7 mph86%30.49 "Hg10 mi
5:51 AM47 °FPassing clouds.9 mph83%30.46 "Hg10 mi
4:51 AM47 °FClear.8 mph86%30.44 "Hg10 mi
3:51 AM49 °FClear.8 mph80%30.43 "Hg10 mi
2:51 AM51 °FClear.10 mph77%30.42 "Hg10 mi
1:51 AM52 °FClear.9 mph75%30.42 "Hg10 mi
12:51 AM54 °FPassing clouds.10 mph74%30.42 "Hg10 mi
11:51 PM
Wed, Sep 28
56 °FOvercast.5 mph84%30.42 "Hg10 mi
10:51 PM56 °FOvercast.7 mph81%30.42 "Hg10 mi
9:51 PM56 °FOvercast.8 mph84%30.40 "Hg10 mi
8:51 PM56 °FOvercast.9 mph84%30.38 "Hg10 mi
7:51 PM56 °FPassing clouds.9 mph87%30.35 "Hg10 mi
Weather by CustomWeather, © 2016

See weather overviewHow to use our weather pages